Weather History for KPAE - May, 2014

Change the Weather History Date:

Thursday, May 15, 2014

  Actual Average Record
Temperature  
Mean Temperature 65 °F -  
Max Temperature 73 °F 63 °F 84 °F (1973)
Min Temperature 57 °F 45 °F 35 °F (1964)
Growing Degree Days 15 (Base 50)    
Moisture  
Dew Point 50 °F    
Average Humidity 55    
Maximum Humidity 75    
Minimum Humidity 31    
Precipitation  
Precipitation 0.00 in - - ()
Sea Level Pressure  
Sea Level Pressure 30.03 in    
Wind  
Wind Speed 5 mph (North)    
Max Wind Speed 14 mph    
Max Gust Speed -    
Visibility 10 miles    
Events      
Averages and records for this station are not official NWS values.
T = Trace of Precipitation, MM = Missing Value Source: NWS Daily Summary

Daily Weather History Graph

Daily Weather History Graph

Search for Another Location

Airport or City:

Trip Planner

Search our weather history database for the weather conditions in past years. The results will help you decide how hot, cold, wet, or windy it might be!

Date:

Astronomy

May. 15, 2014 Rise Set
Actual Time 5:30 AM PDT 8:41 PM PDT
Civil Twilight 4:53 AM PDT 9:18 PM PDT
Nautical Twilight 4:05 AM PDT 10:06 PM PDT
Astronomical Twilight 3:05 AM PDT 11:07 PM PDT
Moon 9:54 PM PDT (5/15) 6:23 AM PDT (5/15)
Length of Visible Light 16h 24m
Length of Day
15h 10m
Full, 99% of the Moon is Illuminated
May 15
Full
May 21
Last Quarter
May 28
New
Jun 5
First Quarter
Jun 12
Full

Hourly Weather History & Observations

Time (PDT) Temp. Dew Point Humidity Pressure Visibility Wind Dir Wind Speed Gust Speed Precip Events Conditions
12:53 AM 63.0 °F 48.0 °F 58% 30.12 in 10.0 mi North 3.5 mph - N/A   Clear
1:53 AM 62.1 °F 48.0 °F 60% 30.11 in 10.0 mi North 3.5 mph - N/A   Clear
2:53 AM 60.1 °F 48.9 °F 67% 30.10 in 10.0 mi NNE 3.5 mph - N/A   Clear
3:53 AM 59.0 °F 50.0 °F 72% 30.09 in 10.0 mi NNE 6.9 mph - N/A   Clear
4:53 AM 59.0 °F 48.9 °F 69% 30.08 in 10.0 mi NNE 3.5 mph - N/A   Clear
5:53 AM 57.9 °F 50.0 °F 75% 30.08 in 10.0 mi North 3.5 mph - N/A   Clear
6:53 AM 59.0 °F 50.0 °F 72% 30.07 in 10.0 mi North 4.6 mph - N/A   Clear
7:53 AM 62.1 °F 50.0 °F 65% 30.07 in 10.0 mi NNE 3.5 mph - N/A   Clear
8:53 AM 62.1 °F 48.9 °F 62% 30.06 in 10.0 mi Variable 4.6 mph - N/A   Clear
9:53 AM 66.0 °F 50.0 °F 56% 30.05 in 10.0 mi NNE 5.8 mph - N/A   Clear
10:53 AM 66.0 °F 50.0 °F 56% 30.05 in 10.0 mi Variable 4.6 mph - N/A   Clear
12:53 PM 72.0 °F 53.1 °F 51% 30.02 in 10.0 mi Variable 3.5 mph - N/A   Clear
1:53 PM 73.9 °F 54.0 °F 50% 30.01 in 10.0 mi NW 6.9 mph - N/A   Clear
2:53 PM 73.9 °F 52.0 °F 46% 30.00 in 10.0 mi North 5.8 mph - N/A   Clear
3:53 PM 73.9 °F 53.1 °F 48% 29.99 in 10.0 mi North 5.8 mph - N/A   Clear
4:53 PM 73.0 °F 54.0 °F 51% 29.98 in 10.0 mi Variable 3.5 mph - N/A   Clear
5:53 PM 73.9 °F 53.1 °F 48% 29.97 in 10.0 mi NNE 3.5 mph - N/A   Clear
6:53 PM 72.0 °F 55.0 °F 55% 29.96 in 10.0 mi Calm Calm - N/A   Clear
7:53 PM 69.8 °F 55.4 °F 60% 29.97 in 10.0 mi WNW 5.8 mph - N/A   Clear
8:53 PM 73.0 °F 52.0 °F 48% 29.97 in 10.0 mi SSW 13.8 mph - N/A   Clear
9:53 PM 69.1 °F 44.1 °F 40% 29.99 in 10.0 mi SSW 10.4 mph - N/A   Partly Cloudy
10:53 PM 68.0 °F 36.0 °F 31% 30.02 in 10.0 mi SSE 10.4 mph - N/A   Mostly Cloudy
11:53 PM 64.9 °F 35.1 °F 33% 30.03 in 10.0 mi South 12.7 mph - N/A   Mostly Cloudy